| time (UTC) | temp F | wind direction | speed knots | gust knots | rain 1hr in | rain 24hr in | rain mn in | humidity % | barometer mb |
| 20260505070524 | 58 | 218 | 0.9 | 3.5 | 0.00 | 0.00 | 0.00 | 47 | 1011.5 |
| 20260505070042 | 57 | 123 | 0.0 | 4.3 | 0.00 | 0.00 | 0.00 | 49 | 1011.5 |
| 20260505065520 | 57 | 0 | 0.0 | 4.3 | 0.00 | 0.00 | 0.00 | 50 | 1011.5 |
| 20260505065021 | 57 | 210 | 0.9 | 3.5 | 0.00 | 0.00 | 0.00 | 51 | 1011.4 |
| 20260505064558 | 57 | 0 | 0.0 | 0.9 | 0.00 | 0.00 | 0.00 | 52 | 1011.4 |
| 20260505064020 | 57 | 0 | 0.0 | 1.7 | 0.00 | 0.00 | 0.00 | 51 | 1011.4 |
| 20260505063521 | 57 | 197 | 0.0 | 1.7 | 0.00 | 0.00 | 0.00 | 49 | 1011.4 |
| 20260505063035 | 58 | 0 | 0.0 | 0.9 | 0.00 | 0.00 | 0.00 | 49 | 1011.3 |
| 20260505062523 | 58 | 0 | 0.0 | 2.6 | 0.00 | 0.00 | 0.00 | 49 | 1011.3 |
| 20260505062021 | 59 | 163 | 0.0 | 2.6 | 0.00 | 0.00 | 0.00 | 48 | 1011.2 |
| 20260505061542 | 59 | 214 | 0.0 | 4.3 | 0.00 | 0.00 | 0.00 | 47 | 1011.2 |
| 20260505061021 | 59 | 0 | 0.0 | 4.3 | 0.00 | 0.00 | 0.00 | 48 | 1011.2 |
| 20260505060521 | 59 | 0 | 0.0 | 1.7 | 0.00 | 0.00 | 0.00 | 48 | 1011.1 |
| 20260505060041 | 58 | 187 | 0.0 | 2.6 | 0.00 | 0.00 | 0.00 | 48 | 1011.1 |
| 20260505055521 | 59 | 192 | 0.0 | 2.6 | 0.00 | 0.00 | 0.00 | 48 | 1011.0 |
| 20260505055022 | 59 | 157 | 0.0 | 1.7 | 0.00 | 0.00 | 0.00 | 48 | 1011.1 |
| 20260505054547 | 59 | 0 | 0.0 | 1.7 | 0.00 | 0.00 | 0.00 | 46 | 1011.0 |
| 20260505054020 | 59 | 0 | 0.0 | 1.7 | 0.00 | 0.00 | 0.00 | 47 | 1011.1 |
| 20260505053523 | 59 | 181 | 0.0 | 1.7 | 0.00 | 0.00 | 0.00 | 46 | 1011.0 |
| 20260505053037 | 59 | 176 | 0.0 | 4.3 | 0.00 | 0.00 | 0.00 | 47 | 1011.0 |
| 20260505052520 | 59 | 0 | 0.9 | 4.3 | 0.00 | 0.00 | 0.00 | 45 | 1011.0 |
| 20260505052020 | 59 | 0 | 0.0 | 4.3 | 0.00 | 0.00 | 0.00 | 48 | 1010.8 |
| 20260505051541 | 59 | 145 | 0.0 | 0.9 | 0.00 | 0.00 | 0.00 | 47 | 1010.8 |
| 20260505051021 | 59 | 0 | 0.0 | 0.9 | 0.00 | 0.00 | 0.00 | 47 | 1010.8 |
| 20260505050520 | 60 | 0 | 0.0 | 0.9 | 0.00 | 0.00 | 0.00 | 45 | 1010.8 |
| 20260505041534 | 60 | 0 | 0.0 | 0.9 | 0.00 | 0.00 | 0.00 | 47 | 1010.1 |
| 20260505041020 | 61 | 0 | 0.0 | 0.9 | 0.00 | 0.00 | 0.00 | 45 | 1010.0 |
| 20260505040520 | 61 | 0 | 0.0 | 0.9 | 0.00 | 0.00 | 0.00 | 45 | 1009.9 |
| 20260505040053 | 61 | 193 | 0.0 | 1.7 | 0.00 | 0.00 | 0.00 | 45 | 1009.9 |
| 20260505035522 | 61 | 181 | 0.0 | 1.7 | 0.00 | 0.00 | 0.00 | 45 | 1009.8 |
| 20260505035020 | 61 | 178 | 0.9 | 1.7 | 0.00 | 0.00 | 0.00 | 46 | 1009.8 |
| 20260505034552 | 61 | 174 | 0.0 | 1.7 | 0.00 | 0.00 | 0.00 | 45 | 1009.7 |
| 20260505034020 | 62 | 180 | 0.0 | 0.9 | 0.00 | 0.00 | 0.00 | 44 | 1009.6 |
| 20260505033521 | 62 | 0 | 0.0 | 0.9 | 0.00 | 0.00 | 0.00 | 43 | 1009.6 |
| 20260505033042 | 63 | 0 | 0.0 | 0.9 | 0.00 | 0.00 | 0.00 | 44 | 1009.5 |
| 20260505032522 | 63 | 0 | 0.0 | 0.9 | 0.00 | 0.00 | 0.00 | 42 | 1009.4 |
| 20260505032020 | 63 | 180 | 0.0 | 1.7 | 0.00 | 0.00 | 0.00 | 41 | 1009.3 |
| 20260505031535 | 63 | 180 | 0.9 | 1.7 | 0.00 | 0.00 | 0.00 | 42 | 1009.3 |
| 20260505031020 | 64 | 0 | 0.9 | 1.7 | 0.00 | 0.00 | 0.00 | 42 | 1009.3 |
| 20260505030520 | 64 | 185 | 0.9 | 1.7 | 0.00 | 0.00 | 0.00 | 41 | 1009.3 |
| 20260505030045 | 64 | 178 | 0.9 | 1.7 | 0.00 | 0.00 | 0.00 | 40 | 1009.2 |
| 20260505025521 | 64 | 196 | 0.9 | 1.7 | 0.00 | 0.00 | 0.00 | 40 | 1009.1 |
| 20260505025020 | 64 | 190 | 0.9 | 1.7 | 0.00 | 0.00 | 0.00 | 40 | 1009.3 |
| 20260505024541 | 64 | 188 | 0.9 | 1.7 | 0.00 | 0.00 | 0.00 | 40 | 1009.3 |
| 20260505024021 | 65 | 185 | 0.9 | 1.7 | 0.00 | 0.00 | 0.00 | 40 | 1009.2 |
| 20260505023521 | 65 | 185 | 0.9 | 1.7 | 0.00 | 0.00 | 0.00 | 40 | 1009.1 |
| 20260505023044 | 66 | 178 | 0.0 | 1.7 | 0.00 | 0.00 | 0.00 | 38 | 1009.1 |
| 20260505022521 | 66 | 176 | 0.0 | 1.7 | 0.00 | 0.00 | 0.00 | 37 | 1009.1 |
| 20260505022021 | 66 | 190 | 0.0 | 1.7 | 0.00 | 0.00 | 0.00 | 38 | 1009.0 |
| 20260505021539 | 66 | 180 | 0.9 | 1.7 | 0.00 | 0.00 | 0.00 | 38 | 1009.0 |
| 20260505021024 | 66 | 195 | 0.0 | 2.6 | 0.00 | 0.00 | 0.00 | 37 | 1009.1 |
| 20260505020521 | 67 | 180 | 0.9 | 3.5 | 0.00 | 0.00 | 0.00 | 37 | 1009.1 |
| 20260505020051 | 67 | 204 | 0.9 | 3.5 | 0.00 | 0.00 | 0.00 | 38 | 1009.0 |
| 20260505015521 | 67 | 0 | 0.0 | 2.6 | 0.00 | 0.00 | 0.00 | 38 | 1009.1 |
| 20260505015021 | 67 | 181 | 0.0 | 2.6 | 0.00 | 0.00 | 0.00 | 37 | 1009.0 |
| 20260505014539 | 67 | 201 | 0.9 | 2.6 | 0.00 | 0.00 | 0.00 | 39 | 1009.0 |
| 20260505014020 | 68 | 0 | 0.9 | 2.6 | 0.00 | 0.00 | 0.00 | 37 | 1009.0 |
| 20260505013522 | 68 | 183 | 0.0 | 3.5 | 0.00 | 0.00 | 0.00 | 37 | 1009.0 |
| 20260505013042 | 68 | 134 | 0.9 | 3.5 | 0.00 | 0.00 | 0.00 | 38 | 1009.1 |
| 20260505012522 | 68 | 0 | 0.0 | 3.5 | 0.00 | 0.00 | 0.00 | 38 | 1009.0 |
| 20260505012021 | 69 | 221 | 0.0 | 3.5 | 0.00 | 0.00 | 0.00 | 36 | 1009.0 |
| 20260505011540 | 69 | 175 | 0.9 | 5.2 | 0.00 | 0.00 | 0.00 | 34 | 1009.0 |
| 20260505011019 | 70 | 197 | 0.9 | 5.2 | 0.00 | 0.00 | 0.00 | 36 | 1009.1 |
| 20260505010521 | 70 | 171 | 0.9 | 5.2 | 0.00 | 0.00 | 0.00 | 36 | 1009.0 |
| 20260505010047 | 70 | 176 | 2.6 | 4.3 | 0.00 | 0.00 | 0.00 | 34 | 1009.1 |
| 20260505005521 | 70 | 209 | 0.9 | 6.1 | 0.00 | 0.00 | 0.00 | 35 | 1009.2 |
| 20260505005021 | 70 | 0 | 0.9 | 6.1 | 0.00 | 0.00 | 0.00 | 34 | 1009.1 |
| 20260505004555 | 70 | 194 | 1.7 | 4.3 | 0.00 | 0.00 | 0.00 | 33 | 1009.0 |
| 20260505004021 | 71 | 277 | 1.7 | 5.2 | 0.00 | 0.00 | 0.00 | 33 | 1009.2 |
| 20260505003525 | 71 | 133 | 0.9 | 5.2 | 0.00 | 0.00 | 0.00 | 33 | 1009.2 |
| 20260505003035 | 71 | 244 | 0.0 | 5.2 | 0.00 | 0.00 | 0.00 | 35 | 1009.3 |
| 20260505002521 | 71 | 194 | 0.9 | 5.2 | 0.00 | 0.00 | 0.00 | 31 | 1009.2 |
| 20260505002020 | 71 | 182 | 0.0 | 2.6 | 0.00 | 0.00 | 0.00 | 33 | 1009.2 |
| 20260505001541 | 72 | 0 | 0.0 | 2.6 | 0.00 | 0.00 | 0.00 | 31 | 1009.2 |
| 20260505001022 | 72 | 180 | 1.7 | 2.6 | 0.00 | 0.00 | 0.00 | 33 | 1009.3 |
| 20260505000520 | 73 | 194 | 0.9 | 3.5 | 0.00 | 0.00 | 0.00 | 34 | 1009.2 |
| 20260505000039 | 73 | 206 | 0.9 | 3.5 | 0.00 | 0.00 | 0.00 | 31 | 1009.2 |
| 20260504235520 | 73 | 294 | 0.9 | 3.5 | 0.00 | 0.00 | 0.00 | 32 | 1009.3 |
| 20260504235020 | 74 | 0 | 0.9 | 5.2 | 0.00 | 0.00 | 0.00 | 30 | 1009.3 |
| 20260504234537 | 74 | 309 | 0.9 | 5.2 | 0.00 | 0.00 | 0.00 | 31 | 1009.3 |
| 20260504234019 | 74 | 327 | 0.9 | 5.2 | 0.00 | 0.00 | 0.00 | 31 | 1009.2 |
| 20260504233521 | 74 | 360 | 0.9 | 6.1 | 0.00 | 0.00 | 0.00 | 30 | 1009.3 |
| 20260504233035 | 74 | 183 | 0.9 | 6.1 | 0.00 | 0.00 | 0.00 | 29 | 1009.3 |
| 20260504232520 | 74 | 306 | 1.7 | 7.8 | 0.00 | 0.00 | 0.00 | 31 | 1009.3 |
| 20260504232020 | 74 | 313 | 2.6 | 7.8 | 0.00 | 0.00 | 0.00 | 33 | 1009.4 |
| 20260504231540 | 74 | 153 | 0.9 | 4.3 | 0.00 | 0.00 | 0.00 | 30 | 1009.3 |
| 20260504231020 | 74 | 168 | 0.0 | 4.3 | 0.00 | 0.00 | 0.00 | 32 | 1009.3 |
| 20260504230524 | 74 | 0 | 0.9 | 6.1 | 0.00 | 0.00 | 0.00 | 32 | 1009.4 |
| 20260504230040 | 74 | 315 | 0.9 | 6.1 | 0.00 | 0.00 | 0.00 | 32 | 1009.4 |
| 20260504225518 | 74 | 14 | 1.7 | 5.2 | 0.00 | 0.00 | 0.00 | 32 | 1009.5 |
| 20260504225020 | 74 | 296 | 1.7 | 5.2 | 0.00 | 0.00 | 0.00 | 32 | 1009.5 |
| 20260504224543 | 74 | 202 | 0.9 | 10.4 | 0.00 | 0.00 | 0.00 | 31 | 1009.4 |
| 20260504224020 | 74 | 319 | 1.7 | 10.4 | 0.00 | 0.00 | 0.00 | 30 | 1009.6 |
| 20260504223520 | 74 | 0 | 1.7 | 5.2 | 0.00 | 0.00 | 0.00 | 31 | 1009.8 |
| 20260504223040 | 74 | 0 | 1.7 | 7.0 | 0.00 | 0.00 | 0.00 | 31 | 1009.9 |
| 20260504222519 | 74 | 0 | 1.7 | 7.0 | 0.00 | 0.00 | 0.00 | 32 | 1009.9 |
| 20260504222020 | 74 | 302 | 1.7 | 7.0 | 0.00 | 0.00 | 0.00 | 30 | 1009.8 |
| 20260504221549 | 74 | 346 | 1.7 | 5.2 | 0.00 | 0.00 | 0.00 | 31 | 1009.8 |
| 20260504221019 | 74 | 337 | 1.7 | 5.2 | 0.00 | 0.00 | 0.00 | 31 | 1009.9 |
| 20260504220520 | 75 | 146 | 0.9 | 6.1 | 0.00 | 0.00 | 0.00 | 30 | 1009.9 |
| 20260504220035 | 75 | 172 | 0.9 | 6.1 | 0.00 | 0.00 | 0.00 | 31 | 1009.9 |
| 20260504215521 | 75 | 273 | 2.6 | 6.1 | 0.00 | 0.00 | 0.00 | 30 | 1010.0 |
| 20260504215021 | 75 | 320 | 0.9 | 5.2 | 0.00 | 0.00 | 0.00 | 32 | 1009.9 |
| 20260504214540 | 75 | 144 | 1.7 | 5.2 | 0.00 | 0.00 | 0.00 | 30 | 1010.0 |
| 20260504214020 | 75 | 209 | 0.9 | 5.2 | 0.00 | 0.00 | 0.00 | 30 | 1010.0 |
| 20260504213520 | 75 | 230 | 0.9 | 5.2 | 0.00 | 0.00 | 0.00 | 31 | 1010.0 |
| 20260504213044 | 74 | 60 | 0.9 | 3.5 | 0.00 | 0.00 | 0.00 | 33 | 1010.0 |
| 20260504212521 | 74 | 267 | 0.9 | 5.2 | 0.00 | 0.00 | 0.00 | 31 | 1010.2 |
| 20260504212020 | 74 | 337 | 1.7 | 7.8 | 0.00 | 0.00 | 0.00 | 31 | 1010.2 |
| 20260504211539 | 74 | 318 | 2.6 | 7.8 | 0.00 | 0.00 | 0.00 | 31 | 1010.1 |
| 20260504211019 | 74 | 353 | 0.9 | 5.2 | 0.00 | 0.00 | 0.00 | 33 | 1010.0 |
| 20260504210520 | 74 | 353 | 0.9 | 6.1 | 0.00 | 0.00 | 0.00 | 32 | 1010.0 |
| 20260504210046 | 73 | 276 | 0.9 | 6.1 | 0.00 | 0.00 | 0.00 | 33 | 1010.2 |
| 20260504205521 | 73 | 315 | 1.7 | 6.1 | 0.00 | 0.00 | 0.00 | 31 | 1010.2 |
| 20260504205024 | 73 | 301 | 1.7 | 6.1 | 0.00 | 0.00 | 0.00 | 32 | 1010.4 |
| 20260504204535 | 73 | 329 | 1.7 | 5.2 | 0.00 | 0.00 | 0.00 | 33 | 1010.3 |
| 20260504204020 | 73 | 337 | 1.7 | 5.2 | 0.00 | 0.00 | 0.00 | 32 | 1010.4 |
| 20260504203520 | 73 | 325 | 0.9 | 3.5 | 0.00 | 0.00 | 0.00 | 30 | 1010.4 |
| 20260504203044 | 72 | 327 | 0.9 | 3.5 | 0.00 | 0.00 | 0.00 | 34 | 1010.3 |
| 20260504202520 | 72 | 293 | 0.9 | 5.2 | 0.00 | 0.00 | 0.00 | 33 | 1010.4 |
| 20260504202019 | 72 | 297 | 1.7 | 5.2 | 0.00 | 0.00 | 0.00 | 32 | 1010.4 |
| 20260504201544 | 72 | 113 | 0.9 | 4.3 | 0.00 | 0.00 | 0.00 | 32 | 1010.4 |
| 20260504201020 | 72 | 322 | 1.7 | 4.3 | 0.00 | 0.00 | 0.00 | 33 | 1010.5 |
| 20260504200520 | 71 | 327 | 1.7 | 7.8 | 0.00 | 0.00 | 0.00 | 33 | 1010.5 |
| 20260504200039 | 71 | 323 | 1.7 | 7.8 | 0.00 | 0.00 | 0.00 | 34 | 1010.4 |
| 20260504195519 | 71 | 356 | 2.6 | 5.2 | 0.00 | 0.00 | 0.00 | 32 | 1010.5 |
| 20260504195020 | 72 | 124 | 1.7 | 4.3 | 0.00 | 0.00 | 0.00 | 31 | 1010.4 |
| 20260504194535 | 71 | 266 | 1.7 | 7.0 | 0.00 | 0.00 | 0.00 | 39 | 1010.5 |
| 20260504194020 | 71 | 299 | 2.6 | 7.0 | 0.00 | 0.00 | 0.00 | 32 | 1010.6 |
| 20260504193521 | 71 | 310 | 3.5 | 7.0 | 0.00 | 0.00 | 0.00 | 32 | 1010.6 |
| 20260504193047 | 71 | 323 | 1.7 | 5.2 | 0.00 | 0.00 | 0.00 | 32 | 1010.6 |
| 20260504192520 | 71 | 327 | 2.6 | 5.2 | 0.00 | 0.00 | 0.00 | 32 | 1010.5 |
| 20260504192023 | 71 | 353 | 1.7 | 5.2 | 0.00 | 0.00 | 0.00 | 34 | 1010.6 |
| 20260504191606 | 71 | 303 | 1.7 | 9.6 | 0.00 | 0.00 | 0.00 | 33 | 1010.7 |
| 20260504191020 | 70 | 209 | 1.7 | 9.6 | 0.00 | 0.00 | 0.00 | 34 | 1010.7 |
| 20260504190520 | 70 | 322 | 2.6 | 7.8 | 0.00 | 0.00 | 0.00 | 32 | 1010.7 |
| 20260504190041 | 70 | 306 | 3.5 | 7.8 | 0.00 | 0.00 | 0.00 | 33 | 1010.6 |
| 20260504185520 | 70 | 307 | 1.7 | 7.8 | 0.00 | 0.00 | 0.00 | 35 | 1010.7 |
| 20260504185019 | 70 | 129 | 1.7 | 5.2 | 0.00 | 0.00 | 0.00 | 34 | 1010.7 |
| 20260504184550 | 70 | 158 | 1.7 | 7.0 | 0.00 | 0.00 | 0.00 | 35 | 1010.7 |
| 20260504184020 | 69 | 280 | 1.7 | 7.0 | 0.00 | 0.00 | 0.00 | 37 | 1010.8 |
| 20260504183520 | 70 | 312 | 1.7 | 7.0 | 0.00 | 0.00 | 0.00 | 35 | 1010.7 |
| 20260504183035 | 70 | 300 | 3.5 | 7.0 | 0.00 | 0.00 | 0.00 | 36 | 1010.7 |
| 20260504182524 | 70 | 311 | 0.9 | 5.2 | 0.00 | 0.00 | 0.00 | 33 | 1010.8 |
| 20260504182019 | 69 | 147 | 0.9 | 7.0 | 0.00 | 0.00 | 0.00 | 36 | 1010.8 |
| 20260504181535 | 69 | 331 | 1.7 | 7.8 | 0.00 | 0.00 | 0.00 | 35 | 1010.8 |
| 20260504181021 | 69 | 6 | 3.5 | 7.8 | 0.00 | 0.00 | 0.00 | 34 | 1010.7 |
| 20260504180520 | 69 | 275 | 1.7 | 7.0 | 0.00 | 0.00 | 0.00 | 35 | 1010.7 |
| 20260504180043 | 68 | 289 | 2.6 | 7.0 | 0.00 | 0.00 | 0.00 | 34 | 1010.7 |
| 20260504175521 | 69 | 348 | 1.7 | 8.7 | 0.00 | 0.00 | 0.00 | 34 | 1010.7 |
| 20260504175022 | 68 | 108 | 1.7 | 8.7 | 0.00 | 0.00 | 0.00 | 38 | 1010.7 |
| 20260504174539 | 68 | 292 | 2.6 | 5.2 | 0.00 | 0.00 | 0.00 | 37 | 1010.7 |
| 20260504174020 | 68 | 280 | 0.9 | 3.5 | 0.00 | 0.00 | 0.00 | 35 | 1010.6 |
| 20260504173521 | 68 | 183 | 0.9 | 3.5 | 0.00 | 0.00 | 0.00 | 37 | 1010.6 |
| 20260504173038 | 68 | 196 | 1.7 | 7.0 | 0.00 | 0.00 | 0.00 | 36 | 1010.4 |
| 20260504172520 | 67 | 262 | 1.7 | 7.0 | 0.00 | 0.00 | 0.00 | 35 | 1010.4 |
| 20260504172021 | 67 | 220 | 0.9 | 8.7 | 0.00 | 0.00 | 0.00 | 36 | 1010.4 |
| 20260504171539 | 67 | 244 | 1.7 | 8.7 | 0.00 | 0.00 | 0.00 | 36 | 1010.3 |
| 20260504171023 | 66 | 263 | 1.7 | 11.3 | 0.00 | 0.00 | 0.00 | 39 | 1010.3 |
| 20260504170519 | 66 | 312 | 3.5 | 11.3 | 0.00 | 0.00 | 0.00 | 37 | 1010.4 |
| 20260504151019 | 60 | 138 | 0.0 | 5.2 | 0.00 | 0.00 | 0.00 | 54 | 1010.2 |
| 20260504150524 | 60 | 112 | 1.7 | 6.1 | 0.00 | 0.00 | 0.00 | 50 | 1010.4 |
| 20260504141024 | 51 | 0 | 0.0 | 3.5 | 0.00 | 0.00 | 0.00 | 65 | 1010.2 |
| 20260504140520 | 51 | 0 | 0.0 | 3.5 | 0.00 | 0.00 | 0.00 | 69 | 1010.2 |
| 20260504130518 | 47 | 223 | 0.0 | 0.9 | 0.00 | 0.00 | 0.00 | 74 | 1009.5 |
| 20260504110521 | 48 | 237 | 0.0 | 0.9 | 0.00 | 0.00 | 0.00 | 72 | 1009.0 |
| 20260504100525 | 49 | 237 | 0.0 | 0.9 | 0.00 | 0.00 | 0.00 | 70 | 1009.3 |
| 20260504081538 | 52 | 234 | 0.9 | 0.9 | 0.00 | 0.00 | 0.00 | 64 | 1008.9 |
| 20260504081025 | 52 | 234 | 0.0 | 0.9 | 0.00 | 0.00 | 0.00 | 65 | 1008.9 |
| 20260504080521 | 52 | 235 | 0.0 | 0.9 | 0.00 | 0.00 | 0.00 | 64 | 1009.0 |